sat.trackr.live / text

‹ back to catalog

TRANSPORTER-17 OBJECT AH

NORAD 69900 · 2026-156AH

PAYLOAD ACTIVE UNKNOWN

§ Identity

Operator
Country
TBD
Launch date
2026-07-07
Launch site
AFWTR
Launch vehicle
Mass (kg)
RCS (m²)

External: N2YO · Heavens-Above · Gunter

§ Orbital elements

Epoch: 2026-09-19T13:16:33.860352Z

Period
96.55 min
Inclination
97.7481°
Eccentricity
0.0002874
Mean motion
14.91381102 rev/d
Perigee alt
591.6 km
Apogee alt
595.6 km
Semi-major
6,971.8 km
B*
1.6400e-4
RAAN
161.7332°
Arg perigee
247.3403°
Mean anomaly
112.7511°
Rev number
1,106

§ Raw data

TRANSPORTER-17 OBJECT AH1 69900U 26156AH  26262.55316968  .00001581  00000+0  16400-3 0  99932 69900  97.7481 161.7332 0002874 247.3403 112.7511 14.91381102 11065

JSON: /api/v1/satellites/69900 · /tle

For live sub-satellite position, see the globe view (requires WebGL).

§ Visibility from observer

Set your observer location to see the next 7 days of passes ≥ 10°. The values pass through the URL so the page stays shareable.

No JS? Fill the form by hand. The geolocation button needs JavaScript.